Location: *
(1.3500°S, 147.5000°W)
Time: 00:45:02
(UTC+00:00)

Envisat - Pass Details

Date: 29 June 2021
Orbit: 764 x 766 km, 98.2° (Epoch: 30 July)

Event Time Altitude Azimuth Distance (km) Brightness Sun altitude
Rises 13:46:17 0° 45° (NE) 3,214 7.3 -29.6°
Reaches altitude 10° 13:49:31 10° 68° (ENE) 2,292 6.4 -28.9°
Maximum altitude 13:52:25 15° 103° (ESE) 1,946 5.6 -28.2°
Drops below altitude 10° 13:55:18 10° 138° (SE) 2,298 5.6 -27.6°
Sets 13:58:32 0° 160° (SSE) 3,228 6.2 -26.8°
